Location: Newark
(39.6172°N, 96.8533°W)
Time: 09:29:19
(UTC+00:00)

Vanguard 1 Rocket - All Passes

Search period start: 17 February 2020 00:00
Search period end: 27 February 2020 00:00
Orbit: 650 x 4226 km, 34.3° (Epoch: 16 February)

Date Brightness Start Highest point End Pass type
(mag) Time Alt. Az. Time Alt. Az. Time Alt. Az.
17 Feb - 08:55:03 10° SSW 09:00:01 21° SSE 09:03:45 10° ESE night (unlit)
17 Feb - 11:19:59 10° WSW 11:24:37 41° S 11:28:47 10° ESE visible
17 Feb - 13:44:51 10° WSW 13:48:55 36° S 13:54:11 10° SE daylight
17 Feb - 16:10:14 10° WSW 16:13:55 17° SSW 16:18:50 10° SSE daylight
18 Feb - 07:44:17 10° SSW 07:48:51 15° SSE 07:52:22 10° ESE night (unlit)
18 Feb - 10:08:36 10° SW 10:13:57 35° S 10:18:01 10° ESE visible
18 Feb - 12:34:03 10° WSW 12:38:17 42° S 12:42:50 10° ESE visible
18 Feb - 14:59:01 10° WSW 15:02:48 22° SSW 15:07:52 10° SSE daylight
19 Feb - 06:35:07 10° S 06:37:18 11° SSE 06:39:15 10° SE night (unlit)
19 Feb - 08:56:56 10° SW 09:03:06 28° SSE 09:07:22 10° ESE visible
19 Feb - 11:22:53 10° WSW 11:27:40 45° S 11:31:52 10° ESE visible
19 Feb - 13:48:07 10° WSW 13:51:58 29° SSW 13:56:43 10° SE daylight
19 Feb - 16:15:50 10° SW 16:17:01 10° SSW 16:18:19 10° SSW daylight
20 Feb - 07:45:13 10° SSW 07:51:57 22° SSE 07:56:32 10° ESE night (unlit)
20 Feb - 10:11:14 10° WSW 10:17:00 42° S 10:21:14 10° ESE visible
20 Feb - 12:37:09 10° WSW 12:41:20 37° S 12:45:42 10° ESE visible
20 Feb - 15:02:57 10° WSW 15:05:51 15° SSW 15:09:24 10° SSE daylight
21 Feb - 06:33:55 10° SSW 06:40:26 17° SSE 06:45:08 10° ESE night (unlit)
21 Feb - 08:59:08 10° SW 09:06:10 36° SSE 09:10:45 10° E visible
21 Feb - 11:25:50 10° WSW 11:30:44 45° S 11:34:56 10° ESE visible
21 Feb - 13:51:33 10° WSW 13:55:00 22° SSW 13:59:02 10° SSE daylight
22 Feb - 05:24:06 10° S 05:28:30 12° SSE 05:32:08 10° SE night (unlit)
22 Feb - 07:46:47 10° SW 07:55:02 30° SSE 08:00:12 10° ESE night (unlit)
22 Feb - 10:13:58 10° WSW 10:20:05 47° S 10:24:24 10° ESE visible
22 Feb - 12:40:20 10° WSW 12:44:21 31° SSW 12:48:27 10° SE visible
23 Feb - 06:34:30 10° SSW 06:43:32 24° SSE 06:49:19 10° ESE night (unlit)
23 Feb - 09:01:33 10° WSW 09:09:13 44° S 09:14:01 10° E visible
23 Feb - 11:28:50 10° W 11:33:47 42° S 11:37:56 10° ESE visible
23 Feb - 13:55:19 10° WSW 13:57:59 16° SSW 14:00:56 10° SSE daylight
24 Feb - 05:22:49 10° SSW 05:31:36 19° SSE 05:37:41 10° ESE visible
24 Feb - 07:48:41 10° SW 07:58:07 38° SSE 08:03:37 10° E night (unlit)
24 Feb - 10:16:47 10° WSW 10:23:08 50° S 10:27:32 10° ESE visible
24 Feb - 12:43:36 10° WSW 12:47:20 24° SSW 12:51:02 10° SE visible
25 Feb - 04:12:57 10° S 04:19:13 13° SSE 04:24:15 10° SE visible
25 Feb - 06:35:42 10° SW 06:46:36 32° SSE 06:53:00 10° E night (unlit)
25 Feb - 09:04:06 10° WSW 09:12:17 50° S 09:17:14 10° E visible
25 Feb - 11:31:52 10° W 11:36:48 37° SSW 11:40:51 10° SE visible
26 Feb - 05:23:00 10° SSW 05:34:39 26° SSE 05:41:55 10° ESE visible
26 Feb - 07:50:50 10° WSW 08:01:10 46° S 08:06:55 10° E night (unlit)
26 Feb - 10:19:38 10° W 10:26:11 49° S 10:30:37 10° ESE visible
26 Feb - 12:47:04 10° WSW 12:50:16 18° SSW 12:53:21 10° SSE daylight
